User: anonymous   Login
Location: Unspecified
(0.0000°N, 0.0000°E)
Time: 15:47:17
(UTC+02:00)
Language:

JASON 3 - Orbit

View from above orbital plane
View from above orbital plane
View from above satellite
View from above satellite

Ground track
Ground track

The orbit data is extracted from the following two-line orbital elements,

1 41240U 16002A   19295.12797165 -.00000053  00000-0  35033-4 0  9991
2 41240  66.0386 142.2421 0007603 268.0419  91.9726 12.80930625175906
Epoch (UTC): 22 October 2019 03:04:16
Eccentricity: 0.0007603
inclination: 66.0386°
perigee height: 1332 km
apogee height: 1343 km
right ascension of ascending node: 142.2421°
argument of perigee: 268.0419°
revolutions per day: 12.80930625
mean anomaly at epoch: 91.9726°
orbit number at epoch: 17590

The dashed part of the orbit path shows where the satellite is in the earth's shadow,  

DLR